Change the Weather History Date:

Monday, April 29, 2013

  Actual Average Record
Temperature  
Mean Temperature 68 °F -  
Max Temperature 83 °F 70 °F 87 °F (1952)
Min Temperature 53 °F 44 °F 28 °F (1958)
Cooling Degree Days 3    
Growing Degree Days 18 (Base 50)    
Moisture  
Dew Point 45 °F    
Average Humidity 49    
Maximum Humidity 74    
Minimum Humidity 21    
Precipitation  
Precipitation 0.00 in - - ()
Sea Level Pressure  
Sea Level Pressure 29.67 in    
Wind  
Wind Speed 6 mph (ESE)    
Max Wind Speed 14 mph    
Max Gust Speed 21 mph    
Visibility 10 miles    
Events      
Averages and records for this station are not official NWS values.
T = Trace of Precipitation, MM = Missing Value Source: NWS Daily Summary

Daily Weather History Graph

Daily Weather History Graph

Search for Another Location

Airport or City:

Trip Planner

Search our weather history database for the weather conditions in past years. The results will help you decide how hot, cold, wet, or windy it might be!

Date:

Astronomy

Apr. 29, 2013 Rise Set
Actual Time 6:25 AM CDT 8:21 PM CDT
Civil Twilight 5:55 AM CDT 8:51 PM CDT
Nautical Twilight 5:19 AM CDT 9:28 PM CDT
Astronomical Twilight 4:39 AM CDT 10:08 PM CDT
Moon No Moon Rise 9:46 AM CDT (4/29)
Length of Visible Light 14h 56m
Length of Day
13h 56m
Waning Gibbous, 80% of the Moon is Illuminated
Apr 29
Waning Gibbous
May 2
Last Quarter
May 9
New
May 17
First Quarter
May 24
Full

Hourly Weather History & Observations

Time (CDT) Temp. Dew Point Humidity Pressure Visibility Wind Dir Wind Speed Gust Speed Precip Events Conditions
12:15 AM 58.8 °F 45.5 °F 61% 29.75 in 10.0 mi West 6.9 mph - N/A   Clear
12:35 AM 59.2 °F 43.0 °F 55% 29.75 in 10.0 mi WNW 4.6 mph - N/A   Clear
12:55 AM 58.8 °F 43.2 °F 56% 29.76 in 10.0 mi West 5.8 mph - N/A   Clear
1:15 AM 59.5 °F 43.0 °F 54% 29.76 in 10.0 mi WNW 4.6 mph - N/A   Clear
1:35 AM 59.9 °F 42.4 °F 52% 29.76 in 10.0 mi NW 4.6 mph - N/A   Clear
1:55 AM 59.5 °F 42.1 °F 52% 29.75 in 10.0 mi Calm Calm - N/A   Clear
2:15 AM 59.2 °F 42.6 °F 54% 29.75 in 10.0 mi WNW 3.5 mph - N/A   Clear
2:35 AM 57.6 °F 43.2 °F 59% 29.74 in 10.0 mi NNW 3.5 mph - N/A   Clear
2:55 AM 55.9 °F 42.8 °F 61% 29.74 in 10.0 mi NW 6.9 mph - N/A   Clear
3:15 AM 55.8 °F 42.3 °F 60% 29.74 in 10.0 mi NNW 6.9 mph - N/A   Clear
3:35 AM 56.5 °F 41.9 °F 58% 29.74 in 10.0 mi Calm Calm - N/A   Clear
3:55 AM 55.8 °F 42.3 °F 60% 29.76 in 10.0 mi NW 6.9 mph - N/A   Clear
4:15 AM 56.8 °F 42.3 °F 58% 29.77 in 10.0 mi NNW 8.1 mph - N/A   Mostly Cloudy
4:35 AM 57.2 °F 42.4 °F 58% 29.74 in 10.0 mi North 10.4 mph - N/A   Mostly Cloudy
4:55 AM 56.5 °F 43.5 °F 62% 29.76 in 10.0 mi North 10.4 mph 19.6 mph N/A   Scattered Clouds
5:15 AM 56.3 °F 44.6 °F 65% 29.75 in 10.0 mi North 11.5 mph 16.1 mph N/A   Mostly Cloudy
5:35 AM 55.6 °F 45.0 °F 67% 29.76 in 10.0 mi NNW 3.5 mph - N/A   Scattered Clouds
5:55 AM 54.7 °F 45.0 °F 70% 29.74 in 10.0 mi North 10.4 mph - N/A   Clear
6:15 AM 54.5 °F 45.5 °F 72% 29.74 in 10.0 mi North 8.1 mph 16.1 mph N/A   Clear
6:35 AM 53.6 °F 45.5 °F 74% 29.75 in 10.0 mi North 10.4 mph 16.1 mph N/A   Clear
6:55 AM 53.8 °F 45.5 °F 74% 29.77 in 10.0 mi North 11.5 mph 18.4 mph N/A   Clear
7:15 AM 54.1 °F 45.5 °F 73% 29.77 in 10.0 mi North 9.2 mph 16.1 mph N/A   Scattered Clouds
7:35 AM 54.3 °F 45.7 °F 73% 29.78 in 10.0 mi North 6.9 mph 20.7 mph N/A   Clear
7:55 AM 55.0 °F 46.0 °F 72% 29.79 in 10.0 mi NNE 4.6 mph - N/A   Scattered Clouds
8:15 AM 55.8 °F 46.4 °F 71% 29.77 in 10.0 mi NNE 10.4 mph - N/A   Scattered Clouds
8:35 AM 55.9 °F 46.4 °F 70% 29.76 in 10.0 mi North 13.8 mph 19.6 mph N/A   Scattered Clouds
8:55 AM 56.3 °F 46.4 °F 69% 29.76 in 10.0 mi NNE 10.4 mph - N/A   Scattered Clouds
9:15 AM 57.0 °F 46.8 °F 69% 29.77 in 10.0 mi North 12.7 mph 18.4 mph N/A   Scattered Clouds
9:35 AM 57.2 °F 46.9 °F 69% 29.76 in 10.0 mi ESE 9.2 mph - N/A   Scattered Clouds
9:55 AM 57.7 °F 47.3 °F 68% 29.77 in 10.0 mi ENE 5.8 mph - N/A   Scattered Clouds
10:15 AM 59.9 °F 48.4 °F 66% 29.77 in 10.0 mi SE 6.9 mph - N/A   Clear
10:35 AM 60.8 °F 48.6 °F 64% 29.75 in 10.0 mi East 8.1 mph - N/A   Clear
10:55 AM 61.7 °F 49.1 °F 63% 29.75 in 10.0 mi East 3.5 mph - N/A   Clear
11:15 AM 63.1 °F 50.2 °F 63% 29.73 in 10.0 mi ENE 6.9 mph - N/A   Clear
11:35 AM 64.8 °F 51.3 °F 62% 29.74 in 10.0 mi ENE 4.6 mph - N/A   Clear
11:55 AM 65.5 °F 51.3 °F 60% 29.73 in 10.0 mi Calm Calm - N/A   Clear
12:35 PM 68.9 °F 51.4 °F 54% 29.72 in 10.0 mi Calm Calm - N/A   Clear
1:15 PM 71.8 °F 52.7 °F 51% 29.70 in 10.0 mi Calm Calm - N/A   Clear
1:35 PM 74.3 °F 50.0 °F 42% 29.69 in 10.0 mi Calm Calm - N/A   Clear
1:55 PM 75.9 °F 50.2 °F 40% 29.67 in 10.0 mi East 4.6 mph - N/A   Clear
2:15 PM 76.8 °F 47.5 °F 35% 29.67 in 10.0 mi Calm Calm - N/A   Clear
2:35 PM 78.8 °F 46.6 °F 32% 29.65 in 10.0 mi SE 5.8 mph - N/A   Clear
2:55 PM 78.8 °F 46.6 °F 32% 29.65 in 10.0 mi SSE 5.8 mph - N/A   Clear
3:15 PM 80.8 °F 46.6 °F 30% 29.64 in 10.0 mi SSE 10.4 mph - N/A   Clear
3:35 PM 81.0 °F 44.8 °F 28% 29.63 in 10.0 mi South 5.8 mph - N/A   Clear
3:55 PM 81.1 °F 43.5 °F 26% 29.62 in 10.0 mi SSE 5.8 mph - N/A   Clear
4:15 PM 82.2 °F 40.8 °F 23% 29.61 in 10.0 mi SSW 8.1 mph - N/A   Clear
4:35 PM 81.9 °F 39.9 °F 22% 29.60 in 10.0 mi SSW 6.9 mph - N/A   Clear
4:55 PM 82.9 °F 40.6 °F 22% 29.60 in 10.0 mi SSW 6.9 mph - N/A   Clear
5:15 PM 82.9 °F 40.3 °F 22% 29.59 in 10.0 mi SSE 6.9 mph - N/A   Clear
5:35 PM 83.3 °F 39.7 °F 21% 29.57 in 10.0 mi South 9.2 mph - N/A   Clear
5:55 PM 82.8 °F 39.2 °F 21% 29.57 in 10.0 mi South 4.6 mph - N/A   Clear
6:15 PM 82.9 °F 40.6 °F 22% 29.56 in 10.0 mi SSE 8.1 mph - N/A   Clear
6:35 PM 82.8 °F 38.5 °F 21% 29.55 in 10.0 mi South 5.8 mph - N/A   Clear
6:55 PM 81.7 °F 39.2 °F 22% 29.54 in 10.0 mi South 5.8 mph - N/A   Clear
7:15 PM 81.0 °F 40.5 °F 24% 29.54 in 10.0 mi South 4.6 mph - N/A   Clear
7:35 PM 80.1 °F 42.3 °F 26% 29.54 in 10.0 mi SSE 5.8 mph - N/A   Clear
7:55 PM 77.5 °F 43.2 °F 29% 29.54 in 10.0 mi SSE 8.1 mph - N/A   Clear
8:15 PM 76.5 °F 42.6 °F 30% 29.54 in 10.0 mi SSE 5.8 mph - N/A   Clear
8:35 PM 75.0 °F 42.8 °F 32% 29.54 in 10.0 mi SSE 3.5 mph - N/A   Clear
8:55 PM 75.0 °F 43.3 °F 32% 29.55 in 10.0 mi SE 4.6 mph - N/A   Clear
9:15 PM 73.4 °F 44.8 °F 36% 29.54 in 10.0 mi SE 4.6 mph - N/A   Clear
9:35 PM 71.4 °F 46.9 °F 42% 29.54 in 10.0 mi SE 5.8 mph - N/A   Clear
9:55 PM 70.0 °F 48.2 °F 46% 29.54 in 10.0 mi SE 8.1 mph - N/A   Clear
10:35 PM 73.6 °F 49.5 °F 43% 29.52 in 10.0 mi SSE 10.4 mph - N/A   Clear
10:55 PM 75.2 °F 49.1 °F 40% 29.52 in 10.0 mi South 10.4 mph - N/A   Clear
11:15 PM 74.1 °F 49.8 °F 42% 29.51 in 10.0 mi SSE 8.1 mph - N/A   Clear
11:35 PM 73.8 °F 51.3 °F 45% 29.50 in 10.0 mi South 9.2 mph - N/A   Clear
11:55 PM 73.9 °F 52.9 °F 48% 29.49 in 10.0 mi South 10.4 mph - N/A   Clear